GORIZONT 25 [-]

Last updated on Jan. 25, 2020, 4:43 a.m. UTC

1 21922U 92017A   20024.62495889 -.00000036  00000-0  00000+0 0  9993
2 21922  14.9346   1.1628 0028103  45.3212 312.0375  0.99856112101615
UTC
Height (km)
Latitude
Longitude
Inclination
Orbital Period
UTC large
Height (km)
Speed (km/s)
/
Latitude / Longitude
Inclination (degrees)
Orbital Period (minutes)
Azimuth
Elevation
Range (km)
Doppler Factor
iOS Compass Heading
iOS Angle

Next 30 passes for location: Hong Kong

Rise time Rise Azimuth (degrees) Set time Set Azimuth (degrees) Duration Max altitude (degrees)

No matching passes for this satellites